SCP
0 0 0 0 0 0 0 0 0 0 0 0 0 0 0 0 0 0 0 -0 0 0 0 0 0 0 0 0 0 0 0 0 0 0 0 0 0 0 0 0 0 0 0 0 0 0 0 0 0 1 0 0 0 0
0 0 0 0 0 0 0 0 0 0 0 0 0 0 0 0 0 0 0 0 0 0 0 0 0 0 0 0 0 0 0 0 0 0 0 0 0 0 0 0 0 0 0 0 0 0 0 0 0 0 0 0 0 0
0 0 0 0 0 0 0 0 0 0 0 0 0 0 0 0 0 0 -0 0 0 0 0 0 0 0 0 0 0 0 0 0 0 0 0 0 0 0 0 0 0 0 0 0 0 0 0 0 0 0 0 0 0 0
0 0 0 0 0 0 0 0 0 0 0 0 0 0 0 0 0 -0 0 0 0 0 0 0 0 0 0 0 0 0 0 0 0 0 0 0 0 0 0 0 0 0 0 0 0 0 0 0 0 0 0 0 0 0
0 0 0 0 0 0 0 0 0 0 0 0 0 0 0 0 -0 0 0 0 0 0 0 0 0 0 0 0 0 0 -0 0 0 0 0 0 0 0 0 0 0 0 0 0 0 0 0 0 0 0 0 0 0 0
0 0 0 0 0 0 0 0 0 0 0 -0 -0 -0 0 0 -0 0 0 0 0 0 0 0 0 0 0 0 -0 -0 0 0 0 0 0 0 0 0 0 0 0 0 0 0 0 0 0 0 0 0 0 0 0 0
0 0 0 0 0 0 0 0 -0 -0 0 0 0 0 -0 -0 -0 0 0 0 0 0 0 0 0 0 0 0 0 0 0 0 0 0 0 0 0 0 0 0 0 0 0 0 -0 0 0 0 0 0 0 0 0 0
0 0 0 0 0 0 -0 -0 -0 -0 -0 -0 -0 -0 -0 0 0 0 0 0 0 0 0 0 0 0 0 0 0 0 0 0 0 0 0 0 0 0 0 0 0 0 0 -0 -0 0 -0 0 0 0 0 0 0 0
0 0 0 0 0 -0 -0 -0 0 -0 -0 -0 -0 0 0 0 0 0 0 0 0 0 0 0 0 0 0 0 0 0 0 0 0 0 0 0 0 0 0 0 0 0 0 -0 -0 0 -0 0 0 0 0 0 0 0
0 0 0 -0 -0 -0 0 0 -0 0 -0 -0 -0 -0 0 0 0 0 0 0 0 0 0 0 0 0 0 0 0 0 0 0 0 0 0 0 0 0 0 0 0 0 0 0 -0 -0 0 -0 0 0 0 0 0 0
0 0 0 0 -0 -0 0 -0 -0 0 -0 0 0 0 0 0 0 0 0 0 0 0 0 0 0 0 0 0 0 0 0 0 0 0 0 0 0 0 0 0 0 0 0 0 -0 0 0 0 0 0 0 0 0 0
0 0 -0 -0 -0 -0 -0 -0 0 0 -0 -0 -0 0 0 0 0 0 0 0 0 0 0 0 0 0 0 0 0 0 0 0 0 0 0 0 0 0 0 0 0 0 0 -0 -0 0 0 0 0 0 0 0 0 0
-0 -0 -0 -0 -0 -0 -0 0 -0 -0 0 0 0 0 0 0 0 0 0 0 0 0 0 0 0 0 0 0 0 0 0 0 0 0 0 0 0 0 0 0 0 0 0 -0 -0 -0 -0 0 0 0 0 0 0 0
-0 -0 -0 -0 -0 -0 -0 -0 -0 -0 -0 0 0 0 0 0 0 0 0 0 0 0 0 0 0 0 0 0 0 0 0 0 0 0 0 0 0 -0 0 0 0 0 0 0 -0 -0 -0 -0 0 0 0 0 0 0
-0 -0 -0 0 0 0 -0 0 0 -0 0 0 0 0 0 0 0 0 0 0 0 0 0 0 0 0 0 0 0 0 0 0 0 0 0 0 0 0 0 0 0 0 0 0 0 0 0 -0 0 0 0 0 0 0
-0 -0 -0 0 0 -0 -0 -0 0 -0 0 0 0 0 0 0 0 0 0 0 0 0 0 0 0 0 0 0 0 0 0 0 0 0 0 0 0 0 0 0 0 0 0 -0 -0 0 0 0 0 0 0 0 0 0
-0 0 0 0 0 -0 -0 0 0 0 0 0 0 0 0 0 0 0 0 0 0 0 0 0 0 0 0 0 0 0 0 0 0 0 0 0 0 0 0 0 0 0 0 -0 -0 0 0 0 -0 0 0 0 0 0
0 0 0 0 -0 0 0 0 0 0 0 0 0 0 0 0 0 0 0 0 0 0 0 0 0 0 0 0 0 0 0 0 0 0 0 0 0 0 0 0 0 0 0 -0 -0 -0 -0 -0 -0 -0 -0 0 0 0
0 0 0 0 0 0 0 0 0 0 0 0 0 0 0 0 0 0 -0 -0 0 -0 -0 0 0 0 0 0 0 0 0 0 0 0 0 0 0 0 0 0 0 0 0 0 0 0 -0 -0 -0 -0 -0 -0 -0 -0
-0 0 -0 -0 0 0 0 0 0 0 0 0 0 0 0 0 0 -0 -0 -0 -0 0 -0 -0 -0 0 0 0 0 0 0 0 -0 -0 0 0 0 0 0 0 0 0 0 0 0 0 0 0 0 -0 -0 -0 -0 -0
-0 -0 0 0 0 0 0 0 0 0 0 0 0 0 0 0 0 -0 -0 -0 0 0 -0 0 0 -0 -0 -0 0 -0 -0 -0 -0 0 0 0 -0 0 -0 -0 -0 -0 0 0 0 0 0 0 0 -0 -0 -0 -0 0
0 0 0 0 -0 0 0 0 0 0 0 0 0 0 0 0 0 0 0 -0 -0 -0 0 0 0 0 0 0 0 -0 -0 0 0 0 0 0 -0 -0 -0 0 0 0 0 0 0 0 0 0 0 0 0 0 0 0
0 0 0 0 0 0 0 0 0 0 0 0 0 0 0 0 0 0 0 0 0 0 0 -0 -0 0 0 0 0 0 0 0 0 0 -0 -0 -0 -0 -0 -0 -0 0 0 0 0 0 0 0 0 0 0 0 0 0
0 0 0 0 0 0 0 0 0 0 0 0 0 0 0 0 0 0 0 0 0 0 0 -0 -0 -0 -0 -0 -0 -0 -0 -0 -0 -0 -0 -0 0 0 0 0 0 0 0 0 0 0 0 0 0 0 0 0 0 0
0 0 0 0 0 0 0 0 0 0 0 0 0 0 0 0 0 0 0 0 0 0 0 -0 -0 -0 -0 -0 -0 -0 -0 -0 -0 -0 -0 -0 0 0 0 0 0 0 0 0 0 0 0 0 0 0 0 0 0 0
0 0 0 0 0 0 0 0 0 0 0 0 0 0 0 0 0 0 0 0 0 0 0 -0 -0 -0 0 0 0 0 0 -0 -0 0 -0 0 0 0 0 0 0 0 0 0 0 -0 0 0 -0 0 0 0 0 0
0 0 0 0 0 0 0 0 0 0 0 0 0 0 0 0 0 0 0 0 0 -0 0 -0 0 0 0 0 -0 -0 0 0 -0 -0 0 0 -0 0 0 0 0 0 0 0 0 0 0 0 0 -0 0 0 -0 0
0 0 0 0 0 0 0 0 0 0 0 0 0 0 0 0 0 0 0 0 -0 0 0 -0 -0 -0 -0 0 0 0 0 -0 0 0 -0 -0 -0 0 0 0 0 0 0 0 0 0 0 0 0 0 0 0 0 0
0 0 0 0 0 0 0 0 0 0 0 0 0 0 0 0 0 0 0 0 0 0 0 0 0 0 0 -0 -0 -0 0 0 0 0 0 0 0 0 0 0 0 0 0 0 0 0 0 0 0 0 0 0 0 0
0 0 0 0 0 0 0 0 0 0 0 0 0 0 0 0 0 0 0 0 0 0 -0 -0 0 0 0 0 0 0 0 0 0 0 0 0 0 0 0 0 0 0 0 0 0 0 0 0 0 0 0 0 0 0
0 0 0 0 0 0 0 0 0 0 0 0 0 0 0 0 0 0 -0 -0 -0 -0 -0 -0 0 -0 0 0 0 0 -0 -0 0 0 0 0 0 0 0 0 0 0 0 0 0 0 0 0 0 0 0 0 0 0
0 0 0 0 0 0 0 0 0 0 0 0 0 0 0 0 0 0 -0 -0 -0 -0 -0 0 0 0 0 -0 -0 -0 -0 0 0 0 0 0 0 0 0 0 0 0 0 0 0 0 0 0 0 0 0 0 0 0
0 0 0 0 0 0 0 0 0 0 0 0 0 0 0 0 0 0 -0 -0 0 0 -0 -0 -0 -0 -0 -0 -0 -0 0 0 -0 0 0 0 0 0 0 0 0 0 0 -0 -0 -0 -0 -0 0 0 0 0 0 0
Wind_Speed_500mb
60 58 58 55 57 56 58 59 60 59 52 42 41 39 37 38 35 31 27 25 17 5 8 15 16 17 18 15 10 16 10 4 5 5 4 5 5 6 4 3 4 4 6 8 12 17 25 23 4 7 10 17 19 22
58 61 59 59 61 64 62 64 62 58 53 44 41 41 39 44 39 32 25 25 21 7 12 20 19 17 15 23 21 25 2 9 9 8 3 5 5 6 7 5 7 7 8 3 8 3 9 12 11 14 17 14 17 16
63 61 63 64 64 62 60 59 58 60 51 43 39 37 34 45 40 35 28 27 23 11 13 16 14 16 13 14 17 14 12 15 12 13 12 5 5 6 9 8 8 8 9 6 7 6 10 3 5 18 23 23 14 11
65 62 62 64 62 60 64 66 58 49 40 33 31 33 44 42 37 35 27 29 19 12 7 6 14 13 13 10 6 7 15 26 29 17 9 5 4 9 5 0 8 7 16 7 14 21 10 14 8 24 22 24 6 11
61 61 62 64 62 67 64 52 40 30 22 21 31 44 41 40 32 29 21 22 23 7 7 12 21 17 13 6 5 11 18 33 21 9 5 4 8 8 3 3 10 18 11 10 9 3 3 11 14 23 22 26 15 5
58 63 66 64 60 48 35 24 14 8 22 32 45 42 45 38 36 29 9 14 21 15 9 7 8 11 22 19 20 24 25 20 11 8 8 7 7 5 6 6 6 21 17 15 7 6 13 25 19 11 21 19 18 1
59 52 48 40 30 18 9 7 15 22 35 47 44 45 40 37 33 5 7 16 26 16 8 10 9 12 32 28 21 18 15 11 7 8 5 9 7 9 3 6 8 22 21 18 16 16 21 15 10 7 12 18 20 7
34 27 19 11 7 19 24 32 42 51 57 45 36 37 36 31 23 11 14 11 24 11 8 7 5 10 25 7 9 11 7 7 4 8 9 8 9 6 8 16 7 12 16 20 20 25 34 26 23 9 5 14 11 14
11 12 20 30 41 46 48 46 38 37 39 40 39 37 31 15 8 10 7 9 18 8 8 6 12 9 28 8 9 7 7 4 6 5 7 13 5 9 8 13 14 10 8 15 25 24 19 21 20 6 5 6 9 14
26 37 48 44 38 39 34 25 29 40 47 46 37 7 8 14 19 18 6 5 6 4 3 4 8 7 25 12 7 10 4 5 6 4 16 6 7 9 11 13 10 8 11 6 8 8 17 17 15 11 8 7 6 7
38 37 34 29 24 19 19 24 40 45 40 8 5 6 26 26 8 4 5 3 2 2 4 4 13 10 17 13 8 9 6 6 6 7 6 5 6 10 22 17 5 4 11 6 4 2 7 9 12 10 12 9 7 7
32 26 22 16 13 19 34 40 39 25 4 10 20 25 16 5 4 4 3 2 4 2 5 6 8 8 14 14 8 11 5 6 6 20 6 5 5 23 29 21 14 15 10 10 9 5 2 6 8 8 9 8 6 8
13 14 16 17 32 38 39 32 13 22 25 8 6 6 3 3 4 6 8 3 2 6 9 8 8 11 10 11 8 7 11 7 21 8 6 6 25 38 31 28 26 21 15 12 12 16 13 4 9 11 12 8 5 6
12 11 14 26 33 36 26 16 21 9 6 4 3 6 1 4 1 2 0 1 1 2 5 7 6 12 8 10 7 9 5 10 10 8 9 11 45 48 39 34 36 33 33 29 24 22 25 16 11 9 9 9 7 16
6 8 14 26 32 27 15 12 9 13 6 6 6 4 6 8 7 9 9 7 9 14 15 7 8 8 6 5 4 7 10 9 11 9 5 26 59 57 47 40 36 32 29 28 27 35 26 26 20 24 25 21 24 31
8 8 14 26 29 18 7 3 4 9 6 7 11 4 13 3 5 7 8 7 12 17 13 13 5 5 7 5 11 12 10 12 7 5 11 47 69 58 52 44 36 30 26 23 22 21 31 34 31 37 39 42 42 42
5 9 23 30 22 9 9 9 7 8 8 7 6 8 8 4 8 12 21 9 16 7 4 5 7 6 8 5 5 5 6 7 10 8 21 56 76 63 52 42 32 23 16 11 10 13 15 20 26 25 31 24 28 35
14 25 33 28 18 13 13 8 6 6 6 4 2 10 12 10 13 11 13 12 9 4 4 3 2 3 2 4 3 5 17 23 19 24 38 58 59 50 40 32 22 16 15 12 11 13 14 13 16 22 24 24 27 29
26 36 32 23 10 6 5 5 6 6 4 2 7 16 15 13 14 14 14 10 9 9 14 7 3 3 2 5 12 24 32 39 44 53 51 43 38 37 31 27 23 24 19 14 17 19 18 19 19 19 21 23 20 20
37 34 25 14 10 6 4 5 7 5 3 3 6 10 19 16 13 17 15 10 8 6 11 7 8 7 10 22 30 41 42 46 49 47 42 40 43 44 35 24 21 20 21 21 24 23 23 22 16 16 16 15 19 22
36 25 17 11 10 7 6 5 3 4 4 2 3 7 6 17 21 17 17 18 14 10 9 10 11 15 19 22 24 27 37 34 41 42 39 41 41 42 31 28 23 22 20 20 21 24 20 19 20 21 18 11 8 13
27 18 10 4 4 4 5 3 4 7 3 3 2 4 4 4 8 12 19 16 10 11 9 9 9 18 27 26 27 29 30 36 40 40 36 38 28 27 25 18 19 23 15 16 19 17 12 12 15 17 14 9 7 6
16 9 3 0 3 2 2 8 2 4 3 5 3 2 0 1 2 6 7 5 6 13 16 22 30 34 34 34 34 35 33 30 29 27 25 22 20 17 18 15 14 22 26 22 18 13 10 7 12 18 12 10 8 9
8 1 1 1 3 2 4 4 4 4 4 4 4 3 4 4 2 4 5 6 12 22 28 30 27 25 23 22 20 21 22 21 18 16 14 15 16 15 14 12 14 12 14 16 17 12 6 12 11 5 8 10 6 7
1 2 4 5 6 6 5 5 5 6 4 6 6 4 6 7 4 4 7 13 26 26 32 29 24 20 18 19 18 16 15 11 14 12 11 10 8 11 12 12 16 14 8 20 13 14 16 7 9 8 3 3 6 11
3 8 10 10 7 8 7 4 9 10 6 7 6 6 7 6 5 5 8 32 36 41 40 32 30 23 16 14 12 9 8 7 10 12 8 12 11 6 6 12 12 13 16 11 5 11 11 12 7 7 4 3 5 7
4 6 11 13 7 6 7 8 5 6 7 8 7 11 7 5 6 5 11 39 49 43 38 35 30 22 18 14 8 5 13 16 13 6 23 20 9 14 13 13 12 16 16 17 14 12 11 9 9 4 3 4 6 6
9 7 7 5 9 11 5 3 4 3 3 6 14 8 4 3 2 5 8 40 41 40 41 33 23 15 12 14 10 10 13 11 14 35 25 19 22 23 22 21 21 22 23 22 23 22 17 12 8 4 8 8 3 1
8 8 7 6 5 6 3 1 2 1 2 9 3 2 4 3 6 6 25 49 47 45 39 31 22 14 16 17 17 15 8 21 35 26 25 23 23 23 23 22 20 20 18 16 13 10 8 5 3 3 2 4 7 12
7 14 5 2 1 3 3 5 3 5 6 6 7 8 9 6 5 18 45 53 50 40 32 25 16 15 20 30 28 21 22 24 23 25 24 21 21 21 16 11 7 6 6 6 6 8 10 11 9 8 8 12 10 5
5 11 4 3 3 5 14 14 13 12 9 10 11 12 12 10 15 31 46 48 43 36 27 23 25 21 24 35 35 30 29 23 21 18 16 14 15 11 7 4 9 12 12 11 10 14 16 17 16 13 11 11 10 6
11 9 8 5 4 13 15 7 3 3 5 4 6 9 13 9 10 29 46 48 43 35 28 25 24 27 31 32 34 32 30 26 21 17 14 12 13 14 17 15 8 1 8 3 7 12 15 1 8 7 7 5 6 8
7 7 6 8 7 8 9 7 4 2 4 4 6 14 10 12 9 22 49 51 47 42 37 32 27 27 30 32 28 22 16 15 14 15 18 20 18 9 8 9 7 6 3 2 4 7 4 4 6 8 12 10 6 3
Wind_Direction_500mb
299 299 298 296 299 297 297 297 298 298 294 284 272 257 241 222 197 191 197 204 196 171 138 176 158 157 154 154 154 157 146 160 114 102 148 153 179 163 193 150 170 211 215 210 217 232 238 3 224 263 353 332 337 329
295 294 295 296 296 297 295 295 297 298 292 279 269 244 227 209 181 185 194 195 190 169 133 133 130 141 173 195 159 162 123 136 147 105 157 138 155 174 178 218 192 224 254 279 245 17 34 19 42 350 333 321 330 331
295 288 290 292 298 298 297 297 294 292 281 269 252 229 215 182 175 180 188 182 171 146 128 132 125 112 112 161 184 143 175 165 157 133 135 126 170 168 189 217 186 215 204 240 300 182 225 35 32 0 352 327 11 355
298 295 291 291 293 294 294 295 294 288 271 257 232 206 175 166 166 182 179 177 168 147 134 133 151 128 123 147 175 171 195 171 147 123 101 131 157 203 197 158 234 199 166 212 256 255 303 224 346 351 341 343 52 59
299 298 295 293 294 293 293 295 295 285 262 202 187 159 156 154 165 167 170 176 187 164 119 119 127 121 125 99 215 189 180 163 140 111 109 130 129 155 118 229 231 191 195 198 227 161 254 276 292 346 336 336 36 16
305 301 298 297 296 293 294 295 292 185 162 160 147 144 146 150 151 137 135 167 170 154 121 136 124 135 133 128 126 131 142 127 112 115 113 118 151 164 167 229 225 192 195 209 220 220 261 283 296 310 322 341 350 15
305 303 299 297 296 292 269 160 139 146 144 129 127 138 154 157 160 137 147 159 173 151 116 109 116 145 144 131 118 115 116 114 108 107 111 130 136 176 216 236 172 193 202 220 248 272 280 234 206 253 336 348 355 20
311 310 317 341 76 116 117 114 111 114 118 131 146 149 155 157 160 125 89 113 169 151 124 123 103 155 173 152 133 147 134 132 97 132 139 135 141 198 244 235 198 188 210 248 261 258 257 260 264 258 270 356 285 352
0 70 85 100 109 107 112 113 116 122 132 135 133 133 135 151 156 177 138 111 161 150 141 151 158 172 171 146 126 135 157 151 157 170 164 166 147 223 227 187 186 198 238 275 274 266 261 238 240 247 209 284 298 308
90 100 105 109 111 113 115 114 125 131 132 130 130 127 124 149 137 125 98 120 129 179 173 158 147 141 171 161 134 134 152 150 192 158 140 221 240 228 171 162 175 262 297 311 300 256 218 241 224 217 227 246 305 301
103 107 109 109 114 117 119 126 131 133 134 135 112 77 129 128 111 89 89 82 57 183 205 191 195 143 183 179 143 189 158 163 211 161 216 204 253 177 163 156 155 58 89 92 197 199 193 181 187 193 202 228 296 294
103 99 88 88 111 127 129 133 135 137 128 112 111 121 128 106 91 110 81 112 219 220 193 195 185 181 164 171 140 173 173 180 220 148 200 237 161 157 153 142 115 106 107 102 99 98 138 215 217 217 219 249 271 285
111 90 75 92 123 127 132 136 125 119 117 93 95 104 107 59 87 168 173 199 235 194 189 185 183 172 166 183 126 166 178 186 131 186 229 211 147 154 149 135 119 108 97 78 71 68 49 67 199 203 205 221 268 227
109 89 88 126 135 137 133 123 127 76 33 47 72 47 15 136 220 187 162 12 294 235 215 210 190 199 190 188 158 167 128 145 199 222 223 162 162 155 150 139 125 114 94 88 83 69 60 84 115 127 147 152 172 143
104 100 110 145 150 145 128 129 128 31 39 43 13 59 58 6 31 42 24 4 348 325 328 224 193 210 182 151 182 122 185 210 203 220 167 155 158 155 151 144 139 131 115 98 83 70 74 73 99 113 112 116 121 120
101 110 143 156 154 155 137 111 127 25 51 46 40 43 357 240 56 19 350 335 330 320 307 245 147 182 249 213 177 193 195 200 201 160 148 155 159 158 154 150 144 137 125 114 105 94 77 75 108 112 117 115 113 115
144 141 149 153 156 127 95 82 59 54 51 44 9 17 22 6 332 329 325 298 344 322 343 7 173 194 311 218 226 211 168 116 121 135 157 164 163 162 159 155 155 152 154 158 158 120 103 80 83 137 118 130 139 121
127 137 143 145 133 102 67 53 75 77 79 59 348 342 326 307 305 319 313 310 351 87 56 84 53 81 359 318 306 312 85 89 109 133 144 157 162 161 156 154 148 138 128 132 152 174 178 158 108 98 131 132 127 137
135 141 140 132 103 81 70 51 57 93 88 63 12 10 357 5 22 38 57 72 78 91 116 130 63 38 2 272 42 104 116 115 109 116 122 135 152 153 152 143 137 135 124 118 125 124 133 150 156 145 134 132 140 144
138 137 128 96 68 65 65 56 52 72 80 79 27 21 40 38 37 27 39 73 96 68 40 37 41 64 61 51 92 101 109 116 120 116 127 137 145 136 129 138 135 135 134 130 135 124 118 110 122 176 168 148 144 136
133 127 108 94 77 77 86 78 79 99 116 73 29 30 30 47 46 43 33 45 58 40 78 90 84 59 52 90 112 118 117 118 121 126 123 128 130 129 138 139 142 152 153 142 149 143 132 123 117 116 129 136 172 195
134 136 131 43 57 68 86 113 144 135 124 144 56 31 31 34 30 32 50 55 63 76 108 113 84 91 105 104 106 117 115 119 121 127 131 140 156 161 168 180 175 163 152 152 146 143 137 138 142 151 141 104 97 126
134 138 122 43 63 85 181 173 208 167 171 162 152 159 136 49 87 89 76 51 65 106 113 111 110 111 110 109 115 118 125 126 129 134 141 151 150 147 136 116 122 167 160 153 154 141 121 108 116 139 124 113 128 135
122 127 153 223 206 172 178 220 211 170 153 186 197 194 185 181 138 94 112 146 148 134 137 140 131 124 123 127 130 138 141 139 134 122 118 118 122 146 149 125 116 120 163 168 147 130 138 130 128 157 140 138 144 156
2 203 193 238 206 202 214 206 195 204 242 183 204 199 170 163 172 164 158 162 167 161 161 157 156 152 138 140 144 147 139 129 168 141 120 123 136 155 164 168 156 126 146 160 148 168 161 163 161 149 149 165 157 170
248 212 200 204 198 216 198 219 203 202 194 192 201 135 161 178 190 209 193 179 177 178 174 172 168 161 152 154 155 158 175 164 123 163 164 136 128 116 168 160 160 166 162 145 156 159 166 164 175 159 130 133 165 147
281 255 222 218 220 232 246 237 202 210 200 200 164 171 179 216 221 195 184 179 180 183 178 173 170 165 155 139 122 115 124 130 133 135 135 127 120 115 120 140 140 148 149 144 139 140 144 134 139 128 65 74 140 143
249 262 240 189 209 223 268 235 218 230 164 149 151 184 212 224 58 159 165 174 172 167 166 172 178 180 172 184 156 147 148 143 149 140 126 124 122 115 115 119 123 129 133 135 137 136 134 133 145 166 61 138 121 132
245 239 219 237 200 202 233 347 54 60 170 174 218 148 118 89 131 152 159 163 161 163 167 174 178 175 173 161 151 141 133 146 149 145 146 142 138 134 129 124 124 127 131 137 146 157 164 174 207 279 323 337 309 309
253 195 223 203 144 65 45 68 57 57 98 141 122 105 88 89 127 153 159 164 168 170 173 177 186 184 171 161 156 150 144 145 150 156 162 159 153 153 155 161 169 179 193 215 233 245 253 254 252 253 277 314 350 62
243 192 171 125 108 125 134 114 94 81 76 75 99 120 114 99 128 157 163 168 172 173 178 182 174 164 169 166 166 163 169 165 164 164 161 159 172 186 184 326 283 261 259 259 267 278 271 262 260 263 270 254 232 220
199 212 178 131 150 161 158 172 183 139 145 113 138 129 124 114 139 173 178 178 181 183 177 174 179 178 172 166 166 167 161 173 182 193 206 217 231 267 292 288 288 238 169 237 335 1 5 308 217 245 260 226 219 217
192 176 137 121 140 172 180 185 201 176 193 209 207 190 179 165 166 189 192 190 190 186 181 173 164 165 175 179 171 164 178 204 227 248 267 276 287 285 206 195 221 241 231 273 305 330 350 60 71 93 106 120 134 156
Wind_Speed_850mb
60 58 58 55 57 56 58 59 60 59 52 42 41 39 37 38 35 31 27 25 17 5 8 15 16 17 18 15 10 16 10 4 5 5 4 5 5 6 4 3 4 4 6 8 12 17 25 23 4 7 10 17 19 22
58 61 59 59 61 64 62 64 62 58 53 44 41 41 39 44 39 32 25 25 21 7 12 20 19 17 15 23 21 25 2 9 9 8 3 5 5 6 7 5 7 7 8 3 8 3 9 12 11 14 17 14 17 16
63 61 63 64 64 62 60 59 58 60 51 43 39 37 34 45 40 35 28 27 23 11 13 16 14 16 13 14 17 14 12 15 12 13 12 5 5 6 9 8 8 8 9 6 7 6 10 3 5 18 23 23 14 11
65 62 62 64 62 60 64 66 58 49 40 33 31 33 44 42 37 35 27 29 19 12 7 6 14 13 13 10 6 7 15 26 29 17 9 5 4 9 5 0 8 7 16 7 14 21 10 14 8 24 22 24 6 11
61 61 62 64 62 67 64 52 40 30 22 21 31 44 41 40 32 29 21 22 23 7 7 12 21 17 13 6 5 11 18 33 21 9 5 4 8 8 3 3 10 18 11 10 9 3 3 11 14 23 22 26 15 5
58 63 66 64 60 48 35 24 14 8 22 32 45 42 45 38 36 29 9 14 21 15 9 7 8 11 22 19 20 24 25 20 11 8 8 7 7 5 6 6 6 21 17 15 7 6 13 25 19 11 21 19 18 1
59 52 48 40 30 18 9 7 15 22 35 47 44 45 40 37 33 5 7 16 26 16 8 10 9 12 32 28 21 18 15 11 7 8 5 9 7 9 3 6 8 22 21 18 16 16 21 15 10 7 12 18 20 7
34 27 19 11 7 19 24 32 42 51 57 45 36 37 36 31 23 11 14 11 24 11 8 7 5 10 25 7 9 11 7 7 4 8 9 8 9 6 8 16 7 12 16 20 20 25 34 26 23 9 5 14 11 14
11 12 20 30 41 46 48 46 38 37 39 40 39 37 31 15 8 10 7 9 18 8 8 6 12 9 28 8 9 7 7 4 6 5 7 13 5 9 8 13 14 10 8 15 25 24 19 21 20 6 5 6 9 14
26 37 48 44 38 39 34 25 29 40 47 46 37 7 8 14 19 18 6 5 6 4 3 4 8 7 25 12 7 10 4 5 6 4 16 6 7 9 11 13 10 8 11 6 8 8 17 17 15 11 8 7 6 7
38 37 34 29 24 19 19 24 40 45 40 8 5 6 26 26 8 4 5 3 2 2 4 4 13 10 17 13 8 9 6 6 6 7 6 5 6 10 22 17 5 4 11 6 4 2 7 9 12 10 12 9 7 7
32 26 22 16 13 19 34 40 39 25 4 10 20 25 16 5 4 4 3 2 4 2 5 6 8 8 14 14 8 11 5 6 6 20 6 5 5 23 29 21 14 15 10 10 9 5 2 6 8 8 9 8 6 8
13 14 16 17 32 38 39 32 13 22 25 8 6 6 3 3 4 6 8 3 2 6 9 8 8 11 10 11 8 7 11 7 21 8 6 6 25 38 31 28 26 21 15 12 12 16 13 4 9 11 12 8 5 6
12 11 14 26 33 36 26 16 21 9 6 4 3 6 1 4 1 2 0 1 1 2 5 7 6 12 8 10 7 9 5 10 10 8 9 11 45 48 39 34 36 33 33 29 24 22 25 16 11 9 9 9 7 16
6 8 14 26 32 27 15 12 9 13 6 6 6 4 6 8 7 9 9 7 9 14 15 7 8 8 6 5 4 7 10 9 11 9 5 26 59 57 47 40 36 32 29 28 27 35 26 26 20 24 25 21 24 31
8 8 14 26 29 18 7 3 4 9 6 7 11 4 13 3 5 7 8 7 12 17 13 13 5 5 7 5 11 12 10 12 7 5 11 47 69 58 52 44 36 30 26 23 22 21 31 34 31 37 39 42 42 42
5 9 23 30 22 9 9 9 7 8 8 7 6 8 8 4 8 12 21 9 16 7 4 5 7 6 8 5 5 5 6 7 10 8 21 56 76 63 52 42 32 23 16 11 10 13 15 20 26 25 31 24 28 35
14 25 33 28 18 13 13 8 6 6 6 4 2 10 12 10 13 11 13 12 9 4 4 3 2 3 2 4 3 5 17 23 19 24 38 58 59 50 40 32 22 16 15 12 11 13 14 13 16 22 24 24 27 29
26 36 32 23 10 6 5 5 6 6 4 2 7 16 15 13 14 14 14 10 9 9 14 7 3 3 2 5 12 24 32 39 44 53 51 43 38 37 31 27 23 24 19 14 17 19 18 19 19 19 21 23 20 20
37 34 25 14 10 6 4 5 7 5 3 3 6 10 19 16 13 17 15 10 8 6 11 7 8 7 10 22 30 41 42 46 49 47 42 40 43 44 35 24 21 20 21 21 24 23 23 22 16 16 16 15 19 22
36 25 17 11 10 7 6 5 3 4 4 2 3 7 6 17 21 17 17 18 14 10 9 10 11 15 19 22 24 27 37 34 41 42 39 41 41 42 31 28 23 22 20 20 21 24 20 19 20 21 18 11 8 13
27 18 10 4 4 4 5 3 4 7 3 3 2 4 4 4 8 12 19 16 10 11 9 9 9 18 27 26 27 29 30 36 40 40 36 38 28 27 25 18 19 23 15 16 19 17 12 12 15 17 14 9 7 6
16 9 3 0 3 2 2 8 2 4 3 5 3 2 0 1 2 6 7 5 6 13 16 22 30 34 34 34 34 35 33 30 29 27 25 22 20 17 18 15 14 22 26 22 18 13 10 7 12 18 12 10 8 9
8 1 1 1 3 2 4 4 4 4 4 4 4 3 4 4 2 4 5 6 12 22 28 30 27 25 23 22 20 21 22 21 18 16 14 15 16 15 14 12 14 12 14 16 17 12 6 12 11 5 8 10 6 7
1 2 4 5 6 6 5 5 5 6 4 6 6 4 6 7 4 4 7 13 26 26 32 29 24 20 18 19 18 16 15 11 14 12 11 10 8 11 12 12 16 14 8 20 13 14 16 7 9 8 3 3 6 11
3 8 10 10 7 8 7 4 9 10 6 7 6 6 7 6 5 5 8 32 36 41 40 32 30 23 16 14 12 9 8 7 10 12 8 12 11 6 6 12 12 13 16 11 5 11 11 12 7 7 4 3 5 7
4 6 11 13 7 6 7 8 5 6 7 8 7 11 7 5 6 5 11 39 49 43 38 35 30 22 18 14 8 5 13 16 13 6 23 20 9 14 13 13 12 16 16 17 14 12 11 9 9 4 3 4 6 6
9 7 7 5 9 11 5 3 4 3 3 6 14 8 4 3 2 5 8 40 41 40 41 33 23 15 12 14 10 10 13 11 14 35 25 19 22 23 22 21 21 22 23 22 23 22 17 12 8 4 8 8 3 1
8 8 7 6 5 6 3 1 2 1 2 9 3 2 4 3 6 6 25 49 47 45 39 31 22 14 16 17 17 15 8 21 35 26 25 23 23 23 23 22 20 20 18 16 13 10 8 5 3 3 2 4 7 12
7 14 5 2 1 3 3 5 3 5 6 6 7 8 9 6 5 18 45 53 50 40 32 25 16 15 20 30 28 21 22 24 23 25 24 21 21 21 16 11 7 6 6 6 6 8 10 11 9 8 8 12 10 5
5 11 4 3 3 5 14 14 13 12 9 10 11 12 12 10 15 31 46 48 43 36 27 23 25 21 24 35 35 30 29 23 21 18 16 14 15 11 7 4 9 12 12 11 10 14 16 17 16 13 11 11 10 6
11 9 8 5 4 13 15 7 3 3 5 4 6 9 13 9 10 29 46 48 43 35 28 25 24 27 31 32 34 32 30 26 21 17 14 12 13 14 17 15 8 1 8 3 7 12 15 1 8 7 7 5 6 8
7 7 6 8 7 8 9 7 4 2 4 4 6 14 10 12 9 22 49 51 47 42 37 32 27 27 30 32 28 22 16 15 14 15 18 20 18 9 8 9 7 6 3 2 4 7 4 4 6 8 12 10 6 3
Wind_Direction_850mb
299 299 298 296 299 297 297 297 298 298 294 284 272 257 241 222 197 191 197 204 196 171 138 176 158 157 154 154 154 157 146 160 114 102 148 153 179 163 193 150 170 211 215 210 217 232 238 3 224 263 353 332 337 329
295 294 295 296 296 297 295 295 297 298 292 279 269 244 227 209 181 185 194 195 190 169 133 133 130 141 173 195 159 162 123 136 147 105 157 138 155 174 178 218 192 224 254 279 245 17 34 19 42 350 333 321 330 331
295 288 290 292 298 298 297 297 294 292 281 269 252 229 215 182 175 180 188 182 171 146 128 132 125 112 112 161 184 143 175 165 157 133 135 126 170 168 189 217 186 215 204 240 300 182 225 35 32 0 352 327 11 355
298 295 291 291 293 294 294 295 294 288 271 257 232 206 175 166 166 182 179 177 168 147 134 133 151 128 123 147 175 171 195 171 147 123 101 131 157 203 197 158 234 199 166 212 256 255 303 224 346 351 341 343 52 59
299 298 295 293 294 293 293 295 295 285 262 202 187 159 156 154 165 167 170 176 187 164 119 119 127 121 125 99 215 189 180 163 140 111 109 130 129 155 118 229 231 191 195 198 227 161 254 276 292 346 336 336 36 16
305 301 298 297 296 293 294 295 292 185 162 160 147 144 146 150 151 137 135 167 170 154 121 136 124 135 133 128 126 131 142 127 112 115 113 118 151 164 167 229 225 192 195 209 220 220 261 283 296 310 322 341 350 15
305 303 299 297 296 292 269 160 139 146 144 129 127 138 154 157 160 137 147 159 173 151 116 109 116 145 144 131 118 115 116 114 108 107 111 130 136 176 216 236 172 193 202 220 248 272 280 234 206 253 336 348 355 20
311 310 317 341 76 116 117 114 111 114 118 131 146 149 155 157 160 125 89 113 169 151 124 123 103 155 173 152 133 147 134 132 97 132 139 135 141 198 244 235 198 188 210 248 261 258 257 260 264 258 270 356 285 352
0 70 85 100 109 107 112 113 116 122 132 135 133 133 135 151 156 177 138 111 161 150 141 151 158 172 171 146 126 135 157 151 157 170 164 166 147 223 227 187 186 198 238 275 274 266 261 238 240 247 209 284 298 308
90 100 105 109 111 113 115 114 125 131 132 130 130 127 124 149 137 125 98 120 129 179 173 158 147 141 171 161 134 134 152 150 192 158 140 221 240 228 171 162 175 262 297 311 300 256 218 241 224 217 227 246 305 301
103 107 109 109 114 117 119 126 131 133 134 135 112 77 129 128 111 89 89 82 57 183 205 191 195 143 183 179 143 189 158 163 211 161 216 204 253 177 163 156 155 58 89 92 197 199 193 181 187 193 202 228 296 294
103 99 88 88 111 127 129 133 135 137 128 112 111 121 128 106 91 110 81 112 219 220 193 195 185 181 164 171 140 173 173 180 220 148 200 237 161 157 153 142 115 106 107 102 99 98 138 215 217 217 219 249 271 285
111 90 75 92 123 127 132 136 125 119 117 93 95 104 107 59 87 168 173 199 235 194 189 185 183 172 166 183 126 166 178 186 131 186 229 211 147 154 149 135 119 108 97 78 71 68 49 67 199 203 205 221 268 227
109 89 88 126 135 137 133 123 127 76 33 47 72 47 15 136 220 187 162 12 294 235 215 210 190 199 190 188 158 167 128 145 199 222 223 162 162 155 150 139 125 114 94 88 83 69 60 84 115 127 147 152 172 143
104 100 110 145 150 145 128 129 128 31 39 43 13 59 58 6 31 42 24 4 348 325 328 224 193 210 182 151 182 122 185 210 203 220 167 155 158 155 151 144 139 131 115 98 83 70 74 73 99 113 112 116 121 120
101 110 143 156 154 155 137 111 127 25 51 46 40 43 357 240 56 19 350 335 330 320 307 245 147 182 249 213 177 193 195 200 201 160 148 155 159 158 154 150 144 137 125 114 105 94 77 75 108 112 117 115 113 115
144 141 149 153 156 127 95 82 59 54 51 44 9 17 22 6 332 329 325 298 344 322 343 7 173 194 311 218 226 211 168 116 121 135 157 164 163 162 159 155 155 152 154 158 158 120 103 80 83 137 118 130 139 121
127 137 143 145 133 102 67 53 75 77 79 59 348 342 326 307 305 319 313 310 351 87 56 84 53 81 359 318 306 312 85 89 109 133 144 157 162 161 156 154 148 138 128 132 152 174 178 158 108 98 131 132 127 137
135 141 140 132 103 81 70 51 57 93 88 63 12 10 357 5 22 38 57 72 78 91 116 130 63 38 2 272 42 104 116 115 109 116 122 135 152 153 152 143 137 135 124 118 125 124 133 150 156 145 134 132 140 144
138 137 128 96 68 65 65 56 52 72 80 79 27 21 40 38 37 27 39 73 96 68 40 37 41 64 61 51 92 101 109 116 120 116 127 137 145 136 129 138 135 135 134 130 135 124 118 110 122 176 168 148 144 136
133 127 108 94 77 77 86 78 79 99 116 73 29 30 30 47 46 43 33 45 58 40 78 90 84 59 52 90 112 118 117 118 121 126 123 128 130 129 138 139 142 152 153 142 149 143 132 123 117 116 129 136 172 195
134 136 131 43 57 68 86 113 144 135 124 144 56 31 31 34 30 32 50 55 63 76 108 113 84 91 105 104 106 117 115 119 121 127 131 140 156 161 168 180 175 163 152 152 146 143 137 138 142 151 141 104 97 126
134 138 122 43 63 85 181 173 208 167 171 162 152 159 136 49 87 89 76 51 65 106 113 111 110 111 110 109 115 118 125 126 129 134 141 151 150 147 136 116 122 167 160 153 154 141 121 108 116 139 124 113 128 135
122 127 153 223 206 172 178 220 211 170 153 186 197 194 185 181 138 94 112 146 148 134 137 140 131 124 123 127 130 138 141 139 134 122 118 118 122 146 149 125 116 120 163 168 147 130 138 130 128 157 140 138 144 156
2 203 193 238 206 202 214 206 195 204 242 183 204 199 170 163 172 164 158 162 167 161 161 157 156 152 138 140 144 147 139 129 168 141 120 123 136 155 164 168 156 126 146 160 148 168 161 163 161 149 149 165 157 170
248 212 200 204 198 216 198 219 203 202 194 192 201 135 161 178 190 209 193 179 177 178 174 172 168 161 152 154 155 158 175 164 123 163 164 136 128 116 168 160 160 166 162 145 156 159 166 164 175 159 130 133 165 147
281 255 222 218 220 232 246 237 202 210 200 200 164 171 179 216 221 195 184 179 180 183 178 173 170 165 155 139 122 115 124 130 133 135 135 127 120 115 120 140 140 148 149 144 139 140 144 134 139 128 65 74 140 143
249 262 240 189 209 223 268 235 218 230 164 149 151 184 212 224 58 159 165 174 172 167 166 172 178 180 172 184 156 147 148 143 149 140 126 124 122 115 115 119 123 129 133 135 137 136 134 133 145 166 61 138 121 132
245 239 219 237 200 202 233 347 54 60 170 174 218 148 118 89 131 152 159 163 161 163 167 174 178 175 173 161 151 141 133 146 149 145 146 142 138 134 129 124 124 127 131 137 146 157 164 174 207 279 323 337 309 309
253 195 223 203 144 65 45 68 57 57 98 141 122 105 88 89 127 153 159 164 168 170 173 177 186 184 171 161 156 150 144 145 150 156 162 159 153 153 155 161 169 179 193 215 233 245 253 254 252 253 277 314 350 62
243 192 171 125 108 125 134 114 94 81 76 75 99 120 114 99 128 157 163 168 172 173 178 182 174 164 169 166 166 163 169 165 164 164 161 159 172 186 184 326 283 261 259 259 267 278 271 262 260 263 270 254 232 220
199 212 178 131 150 161 158 172 183 139 145 113 138 129 124 114 139 173 178 178 181 183 177 174 179 178 172 166 166 167 161 173 182 193 206 217 231 267 292 288 288 238 169 237 335 1 5 308 217 245 260 226 219 217
192 176 137 121 140 172 180 185 201 176 193 209 207 190 179 165 166 189 192 190 190 186 181 173 164 165 175 179 171 164 178 204 227 248 267 276 287 285 206 195 221 241 231 273 305 330 350 60 71 93 106 120 134 156